This is the latest recevied weather packets stored in our database for station/object K2CCS. If no packets are shown the sender has not sent any weather packets the latest 10 day(s).
| Time | Temp. | Humidity | Pressure | Rain* | Wind** | Luminosity | Snow |
|---|---|---|---|---|---|---|---|
| 1778080230 | 8.89° C | 99% | 1011.9 hPa | 4.32 mm | - | 31 W/m² | - |
| 1778078714 | 9.44° C | 99% | 1012.4 hPa | 3.05 mm | - | 57 W/m² | - |
| 1778078109 | 10° C | 99% | 1012.4 hPa | 3.56 mm | - | 44 W/m² | - |
| 1778076900 | 10° C | 99% | 1012.8 hPa | 4.32 mm | - | 35 W/m² | - |
| 1778076295 | 10° C | 99% | 1012.4 hPa | 3.05 mm | - | 34 W/m² | - |
| 1778074475 | 10.56° C | 99% | 1012.1 hPa | 3.56 mm | - | 39 W/m² | - |
| 1778074172 | 11.11° C | 99% | 1012.2 hPa | 1.78 mm | - | 45 W/m² | - |
| 1778073869 | 10.56° C | 99% | 1011.9 hPa | 1.27 mm | - | 61 W/m² | - |
| 1778073263 | 11.11° C | 99% | 1012.1 hPa | 1.78 mm | - | 66 W/m² | - |
| 1778072960 | 11.67° C | 99% | 1012.4 hPa | 1.27 mm | - | 18 W/m² | - |
| 1778071145 | 12.22° C | 99% | 1012.2 hPa | 1.27 mm | - | 23 W/m² | - |
| 1778070843 | 12.22° C | 99% | 1012.4 hPa | 3.05 mm | - | 12 W/m² | - |
| 1778070540 | 12.22° C | 98% | 1012.3 hPa | 4.83 mm | - | 17 W/m² | - |
| 1778070236 | 12.22° C | 98% | 1012.6 hPa | 3.05 mm | - | 19 W/m² | - |
| 1778069935 | 12.22° C | 98% | 1012.8 hPa | 3.56 mm | - | 16 W/m² | - |
| 1778069632 | 12.22° C | 98% | 1012.6 hPa | 3.05 mm | - | 15 W/m² | - |
| 1778069026 | 12.22° C | 98% | 1012.1 hPa | 1.78 mm | - | 21 W/m² | - |
| 1778068422 | 12.78° C | 98% | 1012.2 hPa | 1.27 mm | - | 23 W/m² | - |
| 1778066909 | 13.33° C | 98% | 1012.4 hPa | 0 mm | - | 39 W/m² | - |
| 1778066304 | 12.78° C | 98% | 1012.2 hPa | 1.78 mm | - | 27 W/m² | - |
| 1778066002 | 12.78° C | 98% | 1012.1 hPa | 0 mm | - | 20 W/m² | - |
| 1778063276 | 12.78° C | 95% | 1012 hPa | 0 mm | - | 8 W/m² | - |
| 1778061462 | 12.78° C | 96% | 1011.7 hPa | 0 mm | - | 0 W/m² | - |
| 1778060252 | 13.33° C | 96% | 1011.9 hPa | 0 mm | - | 0 W/m² | - |
| 1778059948 | 13.33° C | 95% | 1011.7 hPa | 0 mm | - | 0 W/m² | - |
* Rain latest hour (hover to see other rain measurements)
** Current wind speed in m/s (hover to see current wind gust speed)